{"data":{"norad_id":52492,"epoch":"2026-05-25T04:41:12.418368Z","epoch_age_seconds":61377,"freshness":"FRESH","line1":"1 52492U 22049AT  26145.19528262 -.00001548  00000+0 -79115-4 0  9998","line2":"2 52492  53.2143  65.6702 0001891  81.3152 278.8054 15.08851919223948","mean_motion":15.08851919,"eccentricity":0.0001891,"inclination_deg":53.2143,"raan_deg":65.6702,"arg_perigee_deg":81.3152,"mean_anomaly_deg":278.8054,"bstar":-7.9115e-5,"rev_number":22394,"period_min":95.436800779918,"perigee_km":538.39879329681,"apogee_km":541.01512188158,"semimajor_km":6917.8439575892,"source":"CELESTRAK","updated_at":"2026-05-25T13:38:17.158252Z"}}